Wind_Speed
20 19 17 16 14 13 14 14 15 14 14 13 12 11 11 13 15 18 20 21 23 24 24 24 23 22 21 19 17 13 9 8 7 6 7 9 11 11 10 9 9 7 7 9 10 9 9 9 10 11 10 10 10 10 10 10 9 9 9 9 8 8
20 19 17 15 13 12 12 13 13 12 11 9 8 9 12 14 16 18 20 22 23 23 23 23 22 21 20 18 17 15 11 8 8 7 7 9 11 12 10 9 9 8 7 9 10 10 10 10 11 12 12 11 11 10 11 11 10 10 10 10 9 9
20 19 17 15 13 12 11 11 11 11 9 7 8 12 14 15 17 18 19 20 22 23 23 22 21 21 20 18 17 16 13 10 9 8 7 8 11 12 12 10 9 8 8 9 10 10 10 10 11 12 12 12 11 10 11 11 11 11 11 10 10 10
20 20 17 15 13 12 11 11 11 11 9 7 10 13 13 14 16 18 18 19 20 22 22 22 21 21 20 18 17 16 15 12 10 9 8 9 11 13 13 11 10 10 9 10 10 11 11 11 11 12 12 12 11 11 11 12 11 11 11 11 10 10
19 20 17 14 13 13 13 12 11 12 12 11 12 12 13 14 16 18 19 19 20 21 22 22 20 20 19 18 17 17 17 15 13 11 9 9 11 12 13 12 12 11 10 10 11 12 12 11 11 12 12 12 11 11 12 12 11 11 10 10 10 10
19 19 17 15 13 14 13 12 10 11 14 14 15 14 14 15 16 18 19 20 20 21 22 21 20 19 19 18 18 18 18 17 15 13 11 10 10 11 13 13 13 12 12 11 11 13 13 12 12 12 11 11 11 11 11 11 10 10 10 9 10 10
19 19 18 15 14 14 14 13 11 12 14 15 16 17 16 16 17 19 20 21 21 21 21 21 20 18 18 20 20 19 19 18 16 14 12 10 9 11 13 14 14 13 13 12 12 14 14 12 11 12 11 10 10 9 9 9 9 9 9 10 10 10
19 19 18 16 15 15 15 14 13 13 14 15 16 17 16 17 18 20 21 21 21 20 20 20 20 19 20 22 21 20 20 19 18 15 14 12 11 11 13 14 14 14 14 13 13 14 15 12 11 12 11 9 8 8 9 8 8 8 9 11 12 12
19 19 18 16 15 15 15 14 14 14 14 15 16 16 17 18 19 21 21 21 21 21 20 20 21 21 22 22 21 20 20 20 19 17 15 14 13 12 14 15 15 15 14 14 14 15 15 13 11 12 11 8 8 8 9 9 8 8 9 11 12 14
19 19 17 16 16 15 15 15 14 15 15 16 17 18 19 20 21 22 22 22 22 21 20 19 20 22 22 22 21 20 20 21 20 19 17 15 14 14 14 15 16 16 15 15 15 15 15 13 12 12 10 8 7 8 9 9 9 9 10 11 12 13
18 18 18 17 16 15 15 15 15 16 17 17 18 20 21 22 22 23 23 22 21 21 20 20 21 22 23 22 21 21 21 22 21 20 18 17 16 15 15 16 16 16 16 16 15 14 13 12 12 11 10 9 8 9 10 10 9 9 9 11 11 12
17 18 19 18 17 16 16 16 17 17 18 19 21 22 22 23 24 24 24 23 22 21 20 21 21 21 23 23 22 23 23 23 22 21 19 18 16 16 16 17 17 17 17 16 15 13 12 11 12 11 10 9 9 9 10 10 9 8 9 10 11 12
17 18 19 18 17 17 17 18 18 18 19 21 22 22 23 24 24 25 24 24 23 22 21 21 21 22 23 23 24 25 25 24 23 22 20 19 17 16 17 18 17 17 16 15 14 13 11 11 11 11 10 9 9 10 10 11 9 8 9 10 11 13
17 18 18 18 18 18 19 19 19 19 20 21 22 23 23 24 24 25 25 25 24 23 22 21 21 22 23 24 25 27 26 25 24 23 21 19 18 17 17 18 17 17 16 14 14 12 11 10 11 11 10 10 10 10 11 11 10 9 9 10 11 13
17 18 19 20 20 20 20 21 20 20 20 21 22 23 23 23 24 25 25 25 25 24 24 23 22 22 23 25 26 28 27 25 25 24 22 20 19 18 17 18 17 16 15 14 13 12 11 10 11 11 10 11 11 11 11 11 10 9 9 10 11 13
19 20 21 21 21 21 22 22 21 20 21 22 23 23 23 23 23 24 25 25 25 24 25 25 23 23 24 25 27 28 27 26 26 25 23 21 20 19 18 17 16 16 15 13 13 12 11 11 11 11 11 11 11 11 11 10 10 9 9 10 11 12
22 22 22 22 22 23 23 23 22 22 22 23 23 23 23 22 23 24 24 24 24 24 24 24 24 24 25 26 28 29 28 27 27 26 23 21 20 20 19 17 16 16 15 13 13 12 12 11 11 11 11 12 11 11 10 10 10 10 10 10 10 12
24 24 24 24 24 24 24 24 24 23 23 23 23 23 23 23 23 23 23 23 24 24 24 24 23 24 26 28 29 29 28 27 27 26 24 21 21 21 20 18 16 16 15 13 13 12 12 12 11 11 11 12 11 11 11 10 10 10 10 10 11 12
24 24 23 24 24 25 25 25 25 24 24 24 23 23 22 23 23 23 23 23 24 25 25 24 24 24 25 28 30 30 28 27 27 26 24 22 22 22 20 18 17 16 15 14 13 13 13 12 11 12 12 12 11 11 11 10 10 10 10 10 11 12
25 22 22 23 25 26 26 26 25 25 25 25 24 23 23 23 23 22 23 24 25 25 25 26 25 25 26 27 29 30 29 27 27 26 24 23 23 22 20 18 16 15 14 14 13 13 13 12 12 12 12 12 12 12 11 11 11 11 10 11 12 12
24 21 23 26 27 27 27 27 27 26 26 26 26 25 25 24 24 23 23 24 25 25 26 26 25 26 27 27 28 30 28 27 26 25 25 24 24 22 20 19 17 15 15 15 14 14 13 13 13 13 13 12 12 12 12 12 12 11 11 12 12 12
22 23 26 27 28 28 28 28 28 28 28 28 28 27 27 25 23 23 24 24 24 24 25 25 25 26 27 26 27 29 27 26 26 27 27 25 23 22 21 20 17 16 16 15 15 14 13 13 14 13 13 13 13 13 13 13 12 12 12 13 13 12
22 24 25 27 28 28 28 27 29 30 30 30 29 29 28 25 23 23 23 23 23 24 25 25 25 26 26 25 25 27 26 26 27 28 26 24 23 23 22 21 18 16 16 15 15 15 14 14 14 14 14 14 14 14 13 13 13 13 13 13 12 12
23 24 26 28 27 26 27 28 30 30 30 30 30 30 29 26 25 26 26 24 24 25 25 25 26 27 26 25 24 24 25 26 27 27 25 23 23 24 23 22 20 17 16 16 16 16 15 15 15 15 15 15 15 15 14 14 14 14 14 13 12 12
25 27 28 27 25 24 26 28 30 30 29 30 30 29 29 27 25 27 27 25 25 27 26 26 27 27 26 25 23 22 24 25 26 26 25 23 23 24 24 22 21 19 18 17 16 16 16 16 17 17 17 16 16 15 15 15 16 15 14 13 12 12
26 29 25 21 24 25 23 23 24 27 29 30 29 27 29 28 24 24 26 25 26 27 28 28 27 26 26 26 23 22 24 25 26 26 24 23 24 24 23 22 22 21 19 18 17 17 18 18 17 18 18 17 16 16 16 16 17 16 15 13 12 12
28 29 25 21 23 27 26 23 22 24 28 30 30 28 28 28 24 23 25 25 26 27 28 29 26 24 25 24 22 22 23 25 25 25 24 23 23 24 24 24 23 21 19 18 18 19 19 18 18 19 18 17 16 17 17 17 17 17 15 14 13 13
31 33 30 24 21 24 28 29 27 25 26 28 30 29 28 27 25 24 24 26 25 24 28 28 23 22 23 22 21 22 24 25 25 25 24 23 22 23 25 25 22 20 19 18 19 20 19 19 19 19 18 17 17 17 18 17 17 17 16 14 14 14
30 31 30 24 21 23 25 27 27 27 27 27 29 28 26 27 26 24 25 26 24 22 25 25 19 19 21 20 19 21 23 24 24 25 25 23 23 23 24 25 23 21 20 19 20 20 20 19 19 19 19 18 18 18 18 17 17 17 17 15 15 15
29 28 27 24 23 25 26 24 22 24 26 26 28 28 27 27 26 25 27 27 23 20 20 20 17 17 19 18 18 21 23 24 25 26 25 24 24 25 26 25 24 23 22 20 21 22 21 19 19 20 20 19 19 18 18 17 17 18 17 16 15 15
29 27 25 24 24 26 29 28 25 24 24 24 25 27 28 28 26 26 28 26 22 19 18 20 19 17 18 19 19 22 24 24 25 26 26 25 25 26 27 26 26 25 23 22 22 23 21 19 20 21 20 20 19 18 17 17 18 18 17 16 16 16
28 27 24 23 24 26 28 29 30 29 28 26 25 25 28 29 27 27 27 26 22 21 20 21 21 19 19 21 22 23 24 24 25 26 26 25 26 27 27 27 27 26 24 24 24 23 21 20 20 21 21 20 19 18 18 18 18 18 18 17 16 16
25 26 25 23 23 25 28 30 31 32 32 31 29 28 28 29 29 27 26 25 23 22 21 22 23 22 22 23 24 25 26 26 27 29 28 27 28 29 28 27 27 26 26 25 24 23 22 21 20 21 21 20 19 19 18 18 19 19 18 17 16 17
22 23 25 24 23 25 27 30 32 32 32 31 30 30 29 29 30 29 28 27 25 23 23 23 24 24 23 24 25 25 27 27 28 30 30 30 30 30 30 29 27 26 26 25 24 23 22 21 21 22 22 21 20 19 19 19 19 18 17 17 17 18
22 23 24 25 25 25 27 29 32 32 31 30 28 28 29 29 30 31 29 26 25 25 25 23 24 25 25 26 26 26 27 27 28 30 31 32 32 31 31 30 28 26 26 25 25 23 22 22 22 23 23 21 20 20 19 19 18 18 17 17 18 18
23 23 24 26 26 27 27 29 32 32 31 29 28 27 29 29 30 31 29 26 25 27 27 25 25 26 26 27 28 27 28 28 28 29 31 32 32 32 31 30 28 27 26 26 25 24 23 23 23 23 23 22 21 20 19 19 18 18 17 18 19 19
25 25 26 27 27 28 28 29 32 33 31 28 28 29 30 29 29 30 31 29 27 27 28 27 26 26 26 26 27 28 28 28 28 29 30 31 32 32 31 30 29 28 27 27 25 24 23 23 24 24 23 22 21 20 20 19 19 18 18 18 19 20
Wind_Direction
313 310 305 299 296 289 278 271 268 266 269 273 273 274 278 282 284 285 286 286 287 288 289 290 290 291 293 294 293 287 277 265 264 276 293 298 293 291 291 293 291 293 294 290 291 294 292 292 294 297 299 302 301 296 292 293 293 290 286 283 282 282
310 306 300 293 288 282 276 271 269 268 268 268 275 285 289 287 284 283 284 285 286 286 286 287 287 287 288 288 287 284 277 266 261 268 284 291 287 284 284 283 283 284 283 281 285 287 286 285 288 290 290 292 293 290 289 290 292 291 288 282 277 277
307 302 295 287 280 273 270 267 267 264 253 261 291 296 291 287 284 284 285 285 285 285 284 284 283 283 282 281 280 280 277 268 262 264 278 286 282 281 280 276 274 275 274 275 277 279 279 278 281 284 286 286 283 280 282 286 288 290 290 284 279 278
304 298 291 283 273 266 265 266 265 251 235 264 300 298 292 288 285 284 284 285 285 284 283 281 280 279 278 275 274 276 276 271 265 265 276 282 278 276 276 271 269 270 268 270 274 275 273 273 273 277 282 284 277 273 277 282 286 288 288 284 281 282
300 294 288 278 266 262 265 267 262 242 236 267 291 291 290 288 285 283 283 283 283 282 281 279 277 275 272 269 269 271 274 273 267 267 275 279 273 269 270 268 267 268 265 265 270 272 271 270 270 271 276 280 277 275 277 282 287 289 285 281 279 280
295 289 284 274 263 260 261 259 255 241 243 264 278 281 284 284 284 283 282 281 280 280 280 278 273 268 266 266 267 268 271 272 269 268 272 275 269 260 261 264 266 266 264 263 267 269 269 269 273 275 276 276 275 274 276 283 291 292 286 279 274 272
290 284 280 272 261 255 254 253 253 250 255 266 272 275 278 280 281 280 279 278 277 277 277 276 269 262 261 264 266 267 269 270 268 266 267 268 261 254 255 259 264 264 263 263 265 267 267 269 276 281 283 279 274 272 273 281 288 288 281 275 273 271
286 280 276 268 257 251 250 252 256 259 263 266 267 270 273 275 277 277 277 277 276 275 275 275 268 259 259 262 263 266 267 267 267 265 263 263 257 253 255 258 262 263 263 262 263 266 268 271 277 283 286 281 274 272 271 273 276 279 277 275 275 275
284 276 270 262 254 249 248 251 255 259 261 261 264 268 272 273 274 274 276 277 277 275 273 273 267 260 260 261 262 266 266 266 266 263 260 261 259 256 258 259 261 262 261 260 260 264 268 272 278 282 284 280 275 273 271 268 268 274 277 276 274 273
280 272 264 255 248 246 246 249 253 257 260 262 265 268 270 271 271 272 274 276 276 274 271 269 266 263 263 261 262 266 267 266 265 262 258 260 262 259 259 259 260 259 256 256 258 261 266 272 277 280 279 277 274 273 271 268 267 270 274 277 277 274
276 266 258 249 243 241 244 247 251 254 259 263 265 267 269 270 271 272 273 275 275 273 270 266 264 265 266 264 264 268 269 266 264 262 259 258 262 261 258 258 257 255 253 255 258 261 265 271 275 275 274 271 271 272 271 267 265 268 275 281 282 282
271 262 255 247 242 241 243 245 248 252 257 261 265 267 269 271 272 273 275 275 275 273 270 265 263 265 266 265 265 268 269 266 263 262 260 258 261 261 256 254 253 252 254 258 261 262 264 268 270 270 269 268 267 269 269 265 265 269 277 282 286 290
265 259 253 247 244 243 245 247 249 252 256 260 263 266 268 271 273 275 277 277 277 275 271 266 262 260 261 262 264 266 266 265 262 262 261 258 258 257 253 250 249 250 254 259 261 260 261 262 263 264 266 266 265 266 266 264 266 273 280 284 288 291
259 256 252 248 247 247 249 250 251 252 256 259 262 265 267 270 274 277 279 279 278 276 273 268 262 257 256 257 261 264 265 264 263 262 260 258 256 254 250 248 247 249 253 258 259 259 258 255 255 259 263 262 262 264 264 264 269 276 281 284 287 290
257 255 252 251 251 251 252 253 253 253 257 260 263 266 268 271 275 278 280 280 279 277 273 268 262 256 255 256 258 261 264 264 263 262 260 257 257 253 249 247 245 248 252 255 257 258 253 248 251 257 259 258 260 262 264 265 269 275 279 282 286 290
255 253 251 251 251 251 252 253 254 255 259 263 265 268 270 274 277 279 280 280 280 280 277 271 265 258 255 255 257 259 261 262 261 262 260 258 258 256 252 248 244 247 251 253 254 254 249 244 247 252 254 255 257 260 262 263 267 272 277 282 286 290
253 248 246 246 248 249 250 252 253 255 259 264 267 271 274 275 278 280 281 280 279 278 276 274 269 263 257 254 254 256 257 257 258 260 258 257 257 255 253 248 243 244 248 249 249 248 246 245 245 247 250 252 254 256 258 261 265 270 275 282 286 289
250 247 245 243 244 247 249 250 252 256 260 265 268 270 274 276 278 280 282 281 277 274 272 272 271 268 262 256 252 252 254 253 255 256 256 255 254 252 251 245 239 241 245 245 243 241 244 246 245 245 245 247 250 251 252 256 263 268 274 281 284 285
250 252 252 248 246 247 248 249 251 256 259 262 266 269 273 276 278 280 282 280 276 275 274 271 269 269 265 258 252 249 250 250 251 252 252 253 251 248 245 238 235 239 243 242 238 237 242 244 244 243 242 242 243 245 248 253 261 267 274 279 281 284
256 253 254 254 252 255 257 256 254 257 260 263 266 270 274 277 280 282 283 281 279 278 277 272 270 271 268 260 251 248 247 246 247 248 249 250 248 244 238 232 233 238 241 240 235 235 239 242 242 242 240 240 241 244 249 253 258 265 272 276 278 281
260 252 252 250 247 254 263 266 264 263 264 265 267 270 272 276 281 284 283 281 281 281 279 274 274 278 274 262 251 246 246 245 244 244 245 247 247 241 232 228 232 237 238 237 233 233 238 241 242 242 241 242 244 247 251 253 256 262 268 271 273 275
266 259 256 250 243 246 257 268 269 267 265 264 266 267 269 274 277 278 279 278 279 280 278 275 275 279 277 266 252 245 245 244 240 239 240 242 243 237 229 229 233 236 240 239 234 233 238 243 244 243 242 244 246 248 251 254 257 261 265 267 271 273
276 270 263 258 252 249 255 264 267 267 267 267 268 268 271 277 276 274 276 275 276 276 275 274 274 278 276 267 254 245 243 241 236 236 239 239 239 233 227 230 233 233 238 241 237 236 241 245 246 244 243 244 247 250 252 256 258 260 261 263 266 270
277 279 274 265 260 260 264 269 269 267 269 270 272 273 275 277 275 277 279 277 276 272 271 273 275 277 273 263 254 245 241 238 233 233 237 238 237 231 225 227 231 229 230 235 237 239 243 246 246 245 244 247 249 253 255 256 258 258 258 259 262 266
276 285 282 264 257 267 275 277 273 271 273 273 274 275 274 272 272 279 284 284 279 273 270 272 274 276 268 258 252 245 238 233 230 231 234 237 236 231 226 226 231 231 229 233 237 240 243 244 246 246 246 248 251 254 257 259 259 258 256 257 260 264
283 291 291 271 262 267 275 284 282 276 277 278 278 276 271 270 269 273 279 281 277 274 272 270 270 271 263 256 250 242 235 228 227 229 232 238 236 228 227 229 233 236 234 234 235 238 241 243 246 248 248 249 251 254 257 260 261 260 259 258 260 262
292 295 300 298 283 269 267 281 290 284 281 280 279 278 274 273 272 270 274 276 275 275 274 270 267 265 259 253 247 239 232 224 224 228 228 234 233 224 227 233 234 235 235 234 232 236 241 243 246 249 249 249 251 255 258 260 262 263 263 262 263 262
293 294 298 302 294 274 267 274 282 282 281 281 280 279 278 277 273 271 272 273 274 274 275 271 263 256 251 246 242 235 227 221 222 228 227 230 231 226 230 235 235 234 233 232 232 236 241 243 247 250 250 249 250 255 258 261 263 263 263 263 263 262
289 292 295 296 288 277 271 274 278 275 274 279 282 282 282 279 274 272 272 272 271 271 274 271 257 247 245 241 238 232 226 223 223 226 227 227 231 233 235 237 238 237 235 233 233 237 240 243 248 250 250 250 251 254 259 262 264 263 262 262 261 261
287 290 294 292 283 274 270 272 277 275 273 277 281 282 284 282 277 274 273 271 267 267 272 269 255 246 244 239 234 227 225 226 224 226 227 225 228 234 236 237 240 240 238 236 236 238 240 242 247 249 250 250 251 254 259 263 264 264 263 262 260 260
289 290 290 289 283 276 272 273 276 276 277 281 283 282 282 280 276 273 273 271 265 259 260 260 255 249 244 238 230 225 226 225 225 228 228 223 224 231 235 237 240 240 239 237 237 239 240 241 244 248 250 251 252 254 258 262 265 265 264 261 259 259
288 289 288 285 282 277 275 275 276 274 273 275 278 280 281 278 272 269 270 271 264 253 251 253 251 245 239 233 226 224 226 224 224 228 227 222 222 228 234 237 238 238 238 236 236 237 239 241 245 248 250 251 252 254 257 262 265 265 263 261 261 261
287 288 288 284 279 276 274 273 273 272 270 270 271 275 277 276 271 264 262 265 261 252 252 252 248 243 236 230 226 225 223 222 224 227 225 223 225 229 233 236 237 236 235 235 235 237 239 242 246 248 249 250 251 254 258 263 266 266 264 263 263 262
286 285 285 283 277 272 272 271 271 271 270 270 270 271 271 271 269 262 257 259 257 252 253 253 250 247 241 234 231 228 224 222 224 227 227 227 228 230 233 236 237 235 233 232 234 238 240 241 244 247 248 248 250 253 258 263 265 265 265 264 263 262
284 280 279 280 278 272 268 268 269 270 269 268 268 269 267 265 264 259 253 254 255 252 251 253 253 251 245 239 236 234 230 227 227 230 231 232 231 230 232 235 236 235 232 230 233 237 239 240 242 245 247 248 250 254 258 262 265 265 266 265 263 262
283 281 278 278 278 276 269 266 267 269 269 266 262 264 265 264 261 254 248 249 252 250 246 247 251 251 247 243 241 239 236 234 233 233 234 236 235 232 231 233 234 235 234 232 233 235 237 239 241 243 246 246 248 253 258 262 264 265 265 265 264 263
288 285 283 281 279 278 274 269 268 269 270 265 259 258 262 264 261 252 245 247 252 249 243 241 245 248 248 246 245 243 240 239 239 237 236 237 238 236 233 232 232 233 233 232 233 234 236 240 242 243 244 244 245 251 256 259 261 262 263 264 263 263
Height
5857 5856 5856 5855 5855 5854 5854 5854 5854 5854 5854 5853 5853 5853 5853 5853 5852 5852 5851 5851 5851 5851 5851 5851 5850 5850 5850 5850 5851 5853 5853 5853 5854 5854 5853 5851 5849 5848 5848 5847 5847 5848 5848 5847 5846 5846 5847 5847 5847 5847 5847 5847 5846 5846 5846 5845 5845 5844 5844 5844 5843 5843
5855 5855 5854 5853 5853 5852 5853 5853 5853 5853 5852 5852 5852 5852 5852 5851 5850 5850 5850 5849 5849 5849 5850 5849 5849 5848 5848 5849 5849 5850 5851 5852 5852 5853 5853 5851 5848 5847 5847 5847 5846 5846 5847 5847 5846 5846 5846 5846 5846 5846 5846 5846 5846 5845 5845 5845 5844 5844 5843 5843 5843 5843
5853 5853 5852 5851 5851 5851 5851 5851 5851 5851 5851 5851 5851 5851 5850 5850 5849 5849 5848 5848 5848 5847 5848 5848 5847 5847 5847 5847 5847 5848 5849 5850 5851 5852 5852 5851 5848 5846 5846 5846 5845 5845 5846 5846 5846 5845 5845 5845 5845 5845 5845 5845 5845 5845 5845 5844 5844 5843 5843 5842 5842 5842
5852 5851 5850 5850 5849 5849 5849 5850 5850 5849 5849 5849 5849 5849 5849 5848 5848 5847 5847 5846 5846 5846 5846 5846 5846 5846 5845 5845 5846 5846 5847 5848 5850 5850 5851 5850 5848 5846 5845 5845 5845 5845 5845 5845 5845 5844 5845 5845 5844 5844 5844 5844 5844 5844 5844 5843 5843 5842 5842 5842 5842 5841
5849 5849 5848 5848 5848 5848 5848 5848 5848 5848 5848 5848 5848 5848 5847 5847 5846 5846 5845 5844 5844 5844 5844 5844 5845 5844 5844 5844 5844 5845 5845 5846 5848 5849 5850 5849 5848 5846 5844 5844 5843 5844 5844 5844 5844 5843 5844 5844 5844 5844 5844 5843 5843 5843 5843 5843 5842 5842 5842 5842 5841 5841
5847 5847 5846 5846 5846 5846 5846 5846 5846 5846 5846 5846 5846 5845 5845 5845 5844 5844 5843 5843 5842 5842 5842 5843 5843 5843 5842 5842 5843 5843 5843 5844 5846 5847 5848 5848 5847 5845 5843 5842 5842 5842 5843 5843 5843 5842 5842 5843 5843 5843 5843 5843 5843 5842 5842 5842 5842 5841 5841 5841 5841 5840
5845 5845 5844 5844 5844 5844 5844 5844 5844 5844 5843 5843 5843 5843 5843 5843 5842 5842 5841 5841 5841 5841 5841 5841 5842 5842 5841 5841 5841 5841 5842 5842 5843 5845 5846 5847 5846 5845 5843 5842 5841 5841 5842 5842 5842 5841 5841 5842 5842 5842 5842 5842 5842 5842 5842 5841 5841 5840 5840 5840 5840 5840
5843 5843 5842 5842 5841 5841 5841 5841 5841 5841 5841 5841 5841 5841 5841 5841 5840 5839 5839 5839 5839 5839 5839 5839 5840 5840 5839 5839 5839 5840 5840 5840 5841 5842 5844 5845 5845 5844 5843 5841 5840 5840 5840 5841 5841 5840 5840 5841 5841 5841 5841 5841 5841 5841 5841 5840 5840 5839 5839 5839 5839 5839
5841 5840 5840 5839 5839 5839 5839 5839 5839 5839 5839 5839 5839 5839 5838 5838 5838 5837 5837 5837 5837 5837 5837 5837 5838 5838 5838 5837 5838 5838 5838 5839 5839 5840 5842 5843 5843 5843 5842 5840 5839 5839 5839 5840 5840 5840 5839 5839 5839 5839 5840 5839 5839 5840 5840 5839 5839 5838 5838 5838 5838 5838
5839 5838 5837 5837 5836 5836 5836 5836 5836 5836 5836 5836 5836 5836 5836 5835 5835 5835 5835 5835 5835 5835 5835 5835 5836 5836 5836 5836 5836 5836 5837 5837 5837 5838 5839 5841 5841 5842 5841 5839 5838 5838 5838 5838 5838 5838 5838 5838 5838 5838 5838 5838 5838 5838 5838 5838 5838 5837 5837 5837 5837 5837
5836 5836 5835 5834 5834 5833 5833 5834 5834 5834 5833 5833 5833 5833 5833 5833 5833 5833 5833 5833 5833 5833 5833 5833 5834 5835 5835 5835 5835 5835 5835 5835 5835 5835 5837 5838 5839 5840 5839 5838 5837 5836 5836 5836 5837 5837 5837 5837 5837 5837 5837 5837 5837 5837 5837 5837 5836 5836 5836 5836 5836 5836
5834 5833 5832 5832 5831 5831 5831 5831 5831 5831 5831 5831 5831 5831 5831 5831 5831 5831 5831 5831 5831 5831 5831 5831 5832 5833 5833 5833 5833 5833 5833 5833 5833 5833 5834 5836 5837 5837 5837 5836 5835 5835 5835 5835 5835 5836 5836 5836 5836 5836 5836 5836 5836 5836 5836 5836 5835 5835 5835 5835 5835 5835
5832 5831 5830 5830 5830 5830 5830 5829 5829 5829 5829 5829 5829 5829 5829 5828 5828 5828 5828 5828 5828 5829 5829 5829 5830 5831 5831 5832 5831 5831 5831 5831 5831 5831 5832 5833 5834 5834 5834 5834 5834 5833 5833 5834 5834 5835 5835 5835 5834 5834 5834 5834 5834 5834 5835 5835 5834 5834 5834 5834 5834 5834
5829 5829 5828 5828 5828 5828 5828 5827 5827 5827 5827 5827 5827 5826 5826 5826 5826 5826 5826 5826 5826 5826 5827 5827 5828 5828 5829 5829 5829 5829 5829 5829 5830 5829 5830 5830 5831 5832 5832 5832 5832 5832 5832 5832 5833 5833 5834 5834 5833 5833 5833 5833 5833 5833 5833 5833 5833 5833 5833 5833 5833 5833
5827 5826 5826 5826 5826 5826 5826 5825 5825 5825 5825 5825 5824 5824 5824 5824 5824 5824 5824 5824 5824 5824 5824 5825 5825 5826 5827 5827 5827 5827 5827 5828 5828 5828 5828 5828 5829 5829 5829 5830 5831 5831 5831 5831 5831 5831 5832 5832 5832 5832 5832 5832 5831 5832 5832 5832 5833 5832 5832 5832 5832 5832
5822 5823 5823 5823 5823 5823 5823 5823 5823 5823 5823 5822 5822 5821 5822 5822 5821 5821 5821 5821 5822 5822 5822 5822 5823 5824 5824 5824 5824 5824 5825 5826 5826 5826 5826 5827 5827 5827 5827 5828 5829 5829 5829 5830 5830 5830 5830 5831 5831 5830 5830 5830 5830 5830 5831 5831 5832 5831 5831 5831 5831 5831
5817 5817 5818 5818 5819 5820 5820 5820 5820 5820 5820 5820 5819 5819 5819 5819 5819 5819 5819 5819 5819 5819 5819 5819 5820 5821 5821 5821 5820 5820 5822 5823 5823 5824 5824 5824 5825 5825 5825 5826 5827 5827 5828 5828 5828 5828 5829 5829 5829 5829 5829 5829 5829 5829 5830 5830 5830 5830 5830 5830 5830 5830
5813 5813 5813 5814 5815 5816 5816 5816 5817 5817 5817 5817 5817 5817 5816 5816 5816 5816 5816 5816 5816 5815 5816 5816 5816 5817 5817 5817 5817 5817 5818 5820 5820 5821 5821 5822 5822 5822 5823 5823 5824 5825 5826 5826 5827 5827 5827 5827 5828 5827 5827 5827 5828 5828 5829 5829 5829 5829 5829 5829 5829 5829
5813 5812 5813 5814 5814 5813 5813 5813 5813 5814 5814 5814 5814 5814 5814 5814 5814 5814 5813 5813 5813 5812 5812 5812 5812 5813 5813 5813 5813 5813 5815 5816 5818 5818 5819 5819 5820 5820 5820 5821 5822 5823 5823 5824 5825 5825 5826 5826 5826 5826 5826 5826 5826 5827 5827 5828 5828 5828 5828 5828 5828 5828
5812 5813 5814 5815 5815 5814 5813 5812 5811 5812 5812 5811 5811 5812 5812 5811 5811 5811 5810 5810 5810 5810 5809 5809 5809 5809 5809 5809 5810 5810 5811 5813 5815 5815 5816 5816 5817 5817 5817 5818 5819 5820 5821 5822 5823 5823 5824 5824 5824 5824 5825 5825 5825 5825 5826 5827 5827 5827 5827 5827 5827 5827
5810 5811 5811 5810 5810 5812 5812 5812 5811 5810 5810 5809 5809 5809 5809 5809 5808 5808 5808 5807 5807 5807 5807 5805 5805 5806 5805 5805 5806 5807 5809 5810 5812 5813 5813 5813 5814 5815 5815 5816 5817 5818 5819 5820 5820 5821 5822 5823 5823 5823 5823 5823 5823 5824 5824 5825 5825 5826 5825 5825 5826 5826
5810 5810 5808 5806 5806 5807 5808 5809 5809 5808 5807 5806 5806 5806 5806 5806 5806 5806 5805 5804 5804 5804 5804 5802 5802 5803 5802 5802 5802 5804 5806 5807 5809 5809 5809 5810 5812 5813 5813 5813 5814 5816 5816 5817 5818 5819 5820 5821 5821 5822 5822 5822 5822 5822 5823 5823 5824 5824 5824 5824 5824 5824
5808 5807 5807 5806 5805 5805 5806 5806 5806 5806 5805 5804 5804 5804 5803 5804 5804 5803 5802 5801 5801 5802 5801 5800 5800 5799 5799 5799 5799 5800 5802 5804 5805 5805 5806 5808 5809 5810 5811 5811 5812 5813 5814 5816 5816 5817 5818 5819 5820 5820 5821 5821 5821 5821 5822 5822 5823 5823 5823 5823 5823 5823
5805 5804 5805 5805 5805 5805 5805 5804 5803 5803 5803 5802 5802 5801 5801 5801 5800 5799 5799 5799 5799 5799 5798 5797 5796 5796 5796 5796 5796 5798 5799 5800 5802 5803 5804 5806 5807 5807 5808 5809 5810 5811 5812 5814 5814 5815 5817 5818 5818 5819 5819 5820 5820 5820 5820 5821 5821 5822 5822 5822 5822 5822
5803 5802 5801 5801 5802 5803 5803 5802 5801 5801 5801 5800 5799 5799 5797 5797 5797 5796 5796 5796 5796 5795 5794 5794 5793 5792 5793 5793 5794 5796 5796 5797 5799 5801 5802 5803 5804 5805 5806 5807 5808 5810 5810 5811 5813 5814 5815 5816 5817 5817 5818 5818 5818 5819 5819 5820 5820 5821 5821 5821 5821 5821
5801 5799 5799 5799 5800 5800 5800 5800 5799 5799 5798 5797 5796 5796 5794 5793 5795 5794 5793 5793 5792 5790 5791 5790 5789 5790 5790 5790 5792 5794 5793 5795 5797 5799 5800 5801 5802 5803 5804 5805 5806 5808 5809 5810 5811 5812 5813 5814 5815 5816 5816 5817 5817 5817 5818 5818 5818 5819 5819 5819 5820 5820
5797 5796 5797 5798 5798 5797 5797 5797 5796 5796 5795 5793 5793 5793 5792 5792 5793 5792 5790 5789 5788 5787 5787 5786 5786 5787 5788 5788 5790 5791 5791 5792 5795 5797 5798 5798 5799 5801 5802 5803 5805 5805 5806 5808 5809 5810 5811 5812 5813 5814 5815 5815 5815 5816 5816 5817 5817 5817 5818 5818 5818 5818
5794 5794 5795 5796 5796 5795 5795 5794 5794 5793 5791 5790 5789 5790 5790 5790 5790 5789 5788 5787 5785 5784 5783 5783 5783 5784 5784 5785 5786 5788 5788 5790 5793 5795 5796 5796 5797 5799 5800 5801 5803 5803 5804 5806 5807 5808 5809 5810 5811 5812 5813 5813 5814 5814 5815 5815 5816 5816 5816 5816 5816 5816
5792 5792 5792 5793 5793 5792 5792 5791 5790 5789 5788 5787 5787 5788 5789 5788 5788 5787 5786 5784 5783 5782 5781 5780 5780 5780 5781 5782 5784 5785 5787 5789 5791 5792 5793 5795 5796 5797 5797 5799 5800 5801 5802 5804 5805 5806 5807 5808 5809 5810 5811 5811 5812 5813 5813 5814 5814 5815 5815 5815 5815 5815
5790 5789 5789 5790 5790 5789 5788 5788 5787 5786 5785 5785 5785 5786 5786 5786 5785 5785 5783 5782 5781 5779 5778 5778 5778 5778 5778 5779 5781 5783 5785 5787 5789 5790 5791 5793 5794 5795 5795 5796 5797 5798 5800 5801 5803 5803 5805 5806 5807 5808 5809 5809 5810 5811 5812 5812 5813 5813 5813 5814 5814 5814
5786 5785 5785 5786 5786 5785 5784 5784 5784 5784 5784 5783 5783 5782 5782 5782 5782 5781 5780 5780 5779 5777 5777 5776 5776 5776 5776 5777 5779 5781 5782 5784 5786 5787 5788 5790 5791 5792 5793 5794 5795 5797 5798 5799 5800 5802 5803 5804 5805 5806 5807 5808 5809 5809 5810 5811 5811 5811 5811 5812 5812 5813
5782 5781 5781 5782 5781 5781 5780 5780 5780 5781 5781 5780 5779 5779 5778 5778 5777 5777 5776 5777 5777 5776 5775 5775 5774 5774 5773 5774 5775 5777 5779 5781 5783 5784 5785 5787 5788 5789 5790 5792 5793 5795 5796 5797 5798 5799 5800 5802 5803 5804 5805 5806 5806 5807 5808 5809 5809 5809 5809 5809 5810 5811
5779 5778 5778 5778 5778 5777 5777 5777 5777 5776 5776 5776 5775 5775 5774 5773 5773 5772 5772 5772 5774 5774 5773 5773 5772 5772 5771 5771 5772 5774 5775 5777 5779 5781 5782 5784 5785 5786 5787 5789 5790 5792 5793 5794 5796 5797 5798 5799 5801 5802 5803 5804 5804 5805 5806 5806 5807 5807 5807 5807 5808 5808
5777 5776 5775 5775 5775 5775 5774 5774 5773 5772 5772 5772 5772 5771 5770 5769 5769 5768 5768 5769 5771 5772 5772 5771 5771 5770 5770 5770 5770 5772 5773 5774 5776 5778 5780 5781 5782 5784 5785 5786 5788 5790 5791 5792 5794 5795 5796 5797 5798 5799 5800 5801 5802 5803 5803 5804 5804 5804 5804 5805 5805 5806
5774 5774 5773 5772 5772 5771 5771 5770 5769 5768 5768 5768 5768 5767 5766 5765 5764 5764 5764 5766 5768 5769 5769 5769 5768 5768 5768 5769 5769 5770 5771 5773 5774 5775 5777 5778 5780 5781 5782 5783 5785 5787 5789 5790 5791 5792 5794 5795 5795 5797 5798 5799 5799 5800 5801 5801 5802 5802 5802 5802 5803 5803
5771 5771 5770 5769 5768 5768 5767 5766 5765 5764 5763 5764 5764 5763 5762 5761 5760 5760 5761 5763 5765 5766 5766 5766 5765 5765 5766 5767 5767 5767 5768 5770 5772 5773 5775 5776 5777 5778 5779 5781 5783 5784 5786 5788 5789 5790 5791 5792 5793 5794 5795 5796 5797 5797 5798 5798 5799 5799 5800 5800 5800 5801
5767 5767 5766 5766 5765 5764 5763 5763 5761 5760 5759 5759 5759 5759 5757 5756 5756 5756 5757 5759 5760 5762 5763 5763 5762 5763 5764 5764 5765 5765 5766 5767 5769 5771 5772 5773 5774 5775 5777 5778 5780 5781 5783 5785 5786 5787 5788 5789 5790 5791 5792 5793 5794 5794 5795 5795 5796 5797 5797 5798 5798 5798